[[{"header":{"parameterUnit":"m.s-1","parameterCategory":1,"la1":30.2991,"la2":30.254,"lo1":-89.0895,"lo2":-89.0444,"dy":0.0017,"dx":0.0017,"nx":28,"ny":28,"refTime":"2025-09-18T03:00:00:Z","depth":0,"parameterNumber":2,"parameterNumberName":"U-component_of_WINDS"},"data":[0,0,0,0,0,0,0,0,0,0,0,0,0,0,0,0,0,0,0,0,0,0,0,0,0,0,0,0,0,0,0,0,0,0,0,0,0,0,0,0,0,0,0,0,0,0,0,0,0,0,0,0,0,0,0,0,0,0,-1.8963,-1.8963,0,-1.8957,-1.8957,-1.8957,-1.891,-1.8908,-1.8907,-1.8906,-1.8901,-1.8902,-1.8902,0,0,0,0,0,0,0,0,0,0,0,0,0,-1.8937,-1.8938,-1.8963,-1.8963,-1.8963,-1.8957,-1.8957,-1.8957,-1.891,-1.8908,-1.8907,-1.8906,-1.89,-1.8901,-1.8903,0,0,0,0,0,0,0,0,0,0,0,0,0,-1.8941,-1.8938,-1.8963,-1.8939,-1.8937,-1.8957,-1.8957,-1.8957,-1.891,-1.8908,-1.8907,-1.8905,-1.89,-1.8901,-1.8903,-1.8947,0,0,-1.8907,-1.8908,0,0,0,0,0,0,0,0,-1.8941,-1.8942,-1.8943,-1.8941,-1.8938,-1.8932,-1.8946,-1.8954,-1.891,-1.892,-1.8906,-1.8904,-1.8913,-1.8913,-1.8916,-1.8946,-1.8946,-1.8907,-1.8908,-1.8909,-1.8909,0,0,0,0,0,0,0,-1.8941,-1.8942,-1.8961,-1.8943,-1.894,-1.8929,-1.8928,-1.8947,-1.8926,-1.8919,-1.8916,-1.8916,-1.8911,-1.8914,-1.8915,-1.8946,-1.8907,-1.8908,-1.8909,-1.891,-1.9016,-1.9018,0,0,0,0,0,0,-1.8944,-1.8942,-1.8961,-1.8961,-1.8935,-1.8931,-1.893,-1.8936,-1.8926,-1.8923,-1.8917,-1.8913,-1.8913,-1.8914,-1.8915,-1.8967,-1.8909,-1.891,-1.8911,-1.9014,-1.9016,-1.9018,0,0,0,0,0,0,-1.8943,-1.8946,-1.8961,-1.8951,-1.8952,-1.8933,-1.8941,-1.8937,-1.894,-1.8924,-1.8921,-1.8924,-1.8911,-1.8913,-1.894,-1.8966,-1.8911,-1.8912,-1.9012,-1.9015,-1.9017,-1.9071,0,0,0,0,0,0,-1.8943,-1.8946,-1.8962,-1.8951,-1.8953,-1.8986,-1.8943,-1.8938,-1.8942,-1.8938,-1.893,-1.8927,-1.891,-1.8938,-1.8941,-1.8967,-1.8913,-1.9009,-1.9013,-1.9016,-1.9067,-1.9076,-1.9083,0,0,0,0,0,-1.8942,-1.8977,-1.8963,-1.8965,-1.8972,-1.8987,-1.8988,-1.8968,-1.8945,-1.8961,-1.8952,-1.8927,-1.8963,-1.8941,-1.8944,-1.8971,-1.9007,-1.9012,-1.9016,-1.9064,-1.9074,-1.9083,0,0,0,0,0,0,-1.899,-1.8975,-1.8959,-1.8991,-1.8991,-1.8979,-1.8999,-1.8979,-1.8985,-1.898,-1.8955,-1.8954,-1.8985,-1.8981,-1.8957,-1.9015,-1.8981,-1.8987,-1.9016,-1.9026,-1.9034,-1.9034,-1.8914,0,0,0,0,0,-1.9005,-1.9018,-1.9004,-1.9034,-1.9035,-1.9017,-1.9023,-1.9008,-1.9006,-1.9006,-1.8998,-1.8998,-1.901,-1.9018,-1.9027,-1.9067,-1.9066,-1.9087,-1.9095,-1.9102,-1.9107,-1.913,-1.914,-1.9033,-1.9033,-1.9033,0,0,-1.9034,-1.9028,-1.9037,-1.9043,-1.9041,-1.9057,-1.9017,-1.9034,-1.9046,-1.9009,-1.9034,-1.9029,-1.9027,-1.9062,-1.9076,-1.9059,-1.9136,-1.9108,-1.9113,-1.9114,-1.9135,-1.9145,-1.9154,-1.9036,-1.9035,-1.9035,0,0,-1.9096,-1.9092,-1.9117,-1.9117,-1.9114,-1.9103,-1.9109,-1.9101,-1.9096,-1.9121,-1.9094,-1.9109,-1.9128,-1.9129,-1.9132,-1.9199,-1.9177,-1.9202,-1.9244,-1.9267,-1.9275,-1.9283,-1.9307,-1.9316,-1.9207,-1.9207,-1.9208,0,-1.9133,-1.9154,-1.9133,-1.9153,-1.9157,-1.9125,-1.9151,-1.9152,-1.9153,-1.9157,-1.9138,-1.9164,-1.9161,-1.9196,-1.9212,-1.9216,-1.9223,-1.9203,-1.9276,-1.9283,-1.9289,-1.9313,-1.9322,-1.9211,-1.921,-1.921,-1.921,0,-1.9201,-1.9217,-1.9238,-1.924,-1.9247,-1.927,-1.9253,-1.9263,-1.9248,-1.924,-1.9267,-1.9262,-1.9272,-1.9279,-1.9264,-1.9313,-1.9302,-1.928,-1.9245,-1.9303,-1.9325,-1.9333,-1.9215,-1.9214,-1.9213,-1.9212,0,0,-1.9291,-1.9283,-1.9291,-1.9293,-1.929,-1.9302,-1.9325,-1.9334,-1.9344,-1.9347,-1.9366,-1.9385,-1.9365,-1.9369,-1.9354,-1.9374,-1.9429,-1.935,-1.9349,-1.9365,-1.9484,-1.9501,-1.9512,-1.9415,-1.9417,-1.9418,-1.9485,0,-1.9351,-1.9389,-1.9372,-1.9412,-1.9427,-1.9398,-1.9418,-1.942,-1.9413,-1.9426,-1.9418,-1.9433,-1.9405,-1.9407,-1.9426,-1.9418,-1.9453,-1.9413,-1.9434,-1.9435,-1.9435,-1.9523,-1.954,-1.9603,-1.9493,-1.9494,-1.9495,0,-1.9426,-1.9433,-1.9475,-1.9471,-1.9477,-1.9495,-1.9503,-1.9516,-1.9517,-1.9511,-1.9517,-1.9499,-1.9523,-1.9489,-1.9523,-1.9497,-1.9505,-1.9503,-1.9505,-1.9506,-1.9469,-1.9527,-1.9623,-1.9632,-1.9508,-1.9507,-1.9506,0,-1.9489,-1.9509,-1.9536,-1.9539,-1.9535,-1.9549,-1.9548,-1.9548,-1.9555,-1.9563,-1.9568,-1.9579,-1.9585,-1.9594,-1.958,-1.9557,-1.9617,-1.9582,-1.9613,-1.9614,-1.9626,-1.9626,-1.9725,-1.9631,-1.9631,-1.9631,-1.9631,0,-1.9558,-1.9585,-1.9565,-1.9582,-1.9612,-1.9593,-1.9624,-1.962,-1.9621,-1.9638,-1.9614,-1.9631,-1.9611,-1.9627,-1.9616,-1.9647,-1.9649,-1.9646,-1.9643,-1.9648,-1.9649,-1.9653,-1.9648,-1.9633,-1.9633,-1.9632,-1.9632,0,-1.9633,-1.962,-1.9649,-1.9644,-1.9643,-1.9666,-1.9662,-1.9678,-1.9671,-1.9693,-1.9697,-1.9686,-1.9703,-1.9691,-1.9707,-1.97,-1.9741,-1.9731,-1.974,-1.9738,-1.977,-1.9768,-1.9876,-1.989,-1.9787,-1.9788,-1.9789,0,-1.9678,-1.9698,-1.9695,-1.9705,-1.9706,-1.9722,-1.973,-1.9713,-1.9722,-1.9727,-1.9744,-1.9759,-1.9771,-1.98,-1.9794,-1.9808,-1.9799,-1.9836,-1.98,-1.9806,-1.98,-1.9799,-1.9802,-1.9843,-1.9844,-1.9845,-1.9846,0,-1.9759,-1.9753,-1.9765,-1.9776,-1.9786,-1.9794,-1.98,-1.981,-1.9793,-1.9805,-1.9823,-1.9832,-1.985,-1.9866,-1.9878,-1.9878,-1.986,-1.9857,-1.9865,-1.9871,-1.9875,-1.9874,-1.976,-1.9854,-1.9853,-1.9853,-1.9852,-1.9852,-1.9821,-1.9838,-1.984,-1.9855,-1.9858,-1.9865,-1.9881,-1.9876,-1.989,-1.9904,-1.9893,-1.9915,-1.9919,-1.9933,-1.9936,-1.9953,-1.9938,-1.995,-1.9953,-1.9956,-1.9961,-1.9873,-1.9955,-1.9955,-1.9955,-1.9955,-1.9954,0,-1.9902,-1.9902,-1.9916,-1.9926,-1.9939,-1.992,-1.9927,-1.9939,-1.9958,-1.9963,-1.9975,-1.9997,-2.0013,-2.001,-2.0025,-2.004,-2.0032,-2.0044,-2.0043,-2.0044,-1.9973,-1.9965,-2.0051,-2.0051,-2.0051,-2.0051,-2.0051,-2.0051,-1.9946,-1.9975,-1.9969,-2.0001,-2.0001,-2.0021,-2.0027,-2.0034,-2.0038,-2.0063,-2.0077,-2.0074,-2.0076,-2.0092,-2.0107,-2.0106,-2.0113,-2.0129,-2.0124,-2.0058,-2.0049,-2.004,-2.0032,-2.013,-2.013,-2.0194,-2.0194,-2.0195]},{"header":{"parameterUnit":"m.s-1","parameterCategory":1,"la1":30.2991,"la2":30.254,"lo1":-89.0895,"lo2":-89.0444,"dy":0.0017,"dx":0.0017,"nx":28,"ny":28,"refTime":"2025-09-18T03:00:00:Z","depth":0,"parameterNumber":3,"parameterNumberName":"V-component_of_WINDS"},"data":[0,0,0,0,0,0,0,0,0,0,0,0,0,0,0,0,0,0,0,0,0,0,0,0,0,0,0,0,0,0,0,0,0,0,0,0,0,0,0,0,0,0,0,0,0,0,0,0,0,0,0,0,0,0,0,0,0,0,3.9242,3.9242,0,3.9204,3.9203,3.9203,3.9251,3.9253,3.9254,3.9256,3.9207,3.9204,3.9201,0,0,0,0,0,0,0,0,0,0,0,0,0,3.9349,3.9347,3.9242,3.9242,3.9241,3.9204,3.9203,3.9203,3.9251,3.9253,3.9255,3.9257,3.9208,3.9204,3.9201,0,0,0,0,0,0,0,0,0,0,0,0,0,3.9305,3.9346,3.9242,3.9261,3.9262,3.9204,3.9203,3.9203,3.925,3.9253,3.9255,3.9258,3.9209,3.9205,3.92,3.9119,0,0,3.9187,3.9185,0,0,0,0,0,0,0,0,3.9308,3.9301,3.9259,3.9259,3.9261,3.9235,3.9223,3.9174,3.9249,3.9254,3.9256,3.9259,3.9213,3.9209,3.9195,3.9117,3.9115,3.9186,3.9184,3.9182,3.918,0,0,0,0,0,0,0,3.9311,3.9303,3.9227,3.9258,3.9259,3.9268,3.9265,3.9214,3.9219,3.9254,3.9258,3.9253,3.9215,3.92,3.9195,3.9114,3.9186,3.9182,3.918,3.9178,3.8966,3.8963,0,0,0,0,0,0,3.9313,3.9305,3.9228,3.9226,3.9292,3.9264,3.9261,3.924,3.922,3.9219,3.9251,3.9255,3.9206,3.92,3.9193,3.9096,3.9182,3.9178,3.9175,3.8969,3.8966,3.8962,0,0,0,0,0,0,3.9315,3.9305,3.923,3.9267,3.9258,3.926,3.9236,3.9238,3.9224,3.9217,3.9217,3.9235,3.9208,3.9199,3.9138,3.9095,3.9176,3.9171,3.8973,3.8968,3.8964,3.8901,0,0,0,0,0,0,3.9318,3.9306,3.9277,3.9266,3.9256,3.9177,3.9234,3.9236,3.9217,3.9223,3.9203,3.9202,3.9209,3.9144,3.9133,3.909,3.9168,3.8976,3.8971,3.8965,3.8907,3.8895,3.8885,0,0,0,0,0,3.9321,3.9258,3.9275,3.9265,3.922,3.9175,3.9168,3.9181,3.9213,3.9183,3.9179,3.9202,3.9102,3.9137,3.9126,3.908,3.8979,3.8972,3.8966,3.8912,3.8898,3.8885,0,0,0,0,0,0,3.926,3.9257,3.9276,3.9208,3.9192,3.9183,3.9145,3.9165,3.9137,3.9143,3.9157,3.9152,3.9087,3.9078,3.9117,3.9001,3.9045,3.9036,3.9009,3.8995,3.8984,3.8986,3.9164,0,0,0,0,0,3.924,3.9207,3.9205,3.9145,3.9136,3.9142,3.9123,3.9134,3.9116,3.9109,3.91,3.908,3.9044,3.9019,3.8985,3.8907,3.8902,3.887,3.8859,3.885,3.8841,3.8798,3.8783,3.8941,3.8941,3.8941,0,0,3.9195,3.919,3.9167,3.9132,3.9121,3.9084,3.9135,3.9093,3.9065,3.9101,3.9043,3.9037,3.9014,3.8944,3.8912,3.8934,3.8797,3.8842,3.8835,3.883,3.879,3.8775,3.8761,3.8936,3.8937,3.8938,0,0,3.9095,3.9089,3.9038,3.9027,3.9011,3.9015,3.9003,3.8992,3.899,3.8933,3.896,3.8925,3.8862,3.8846,3.8829,3.8725,3.8744,3.8713,3.8654,3.8612,3.86,3.8589,3.855,3.8536,3.8705,3.8704,3.8704,0,3.9041,3.8989,3.9009,3.8965,3.8948,3.8985,3.8932,3.8919,3.8891,3.8877,3.8903,3.8827,3.8814,3.874,3.8715,3.8701,3.8685,3.8714,3.8601,3.859,3.858,3.8542,3.8528,3.8701,3.8701,3.8701,3.8702,0,3.8922,3.8885,3.8846,3.8822,3.8801,3.8753,3.8763,3.8739,3.8753,3.8754,3.8695,3.8682,3.8647,3.863,3.8642,3.8558,3.8572,3.8599,3.8644,3.856,3.8526,3.8512,3.8695,3.8696,3.8698,3.8698,0,0,3.8779,3.877,3.8754,3.8744,3.873,3.87,3.8654,3.8623,3.8601,3.8581,3.854,3.8488,3.8514,3.8495,3.8505,3.8469,3.8385,3.85,3.85,3.8478,3.8289,3.8267,3.8251,3.84,3.8397,3.8395,3.829,0,3.8678,3.86,3.8618,3.854,3.8505,3.854,3.8499,3.8484,3.8485,3.8453,3.8452,3.8415,3.8452,3.8441,3.8407,3.8403,3.8347,3.8411,3.8359,3.8357,3.8361,3.8233,3.8209,3.8111,3.8277,3.8275,3.8273,0,3.8548,3.8528,3.8447,3.844,3.8426,3.8389,3.8362,3.8332,3.8316,3.8319,3.8299,3.8317,3.8268,3.8316,3.8247,3.829,3.827,3.8265,3.8262,3.8255,3.8308,3.822,3.808,3.8064,3.8252,3.8254,3.8256,0,3.845,3.8402,3.8348,3.8338,3.8328,3.8301,3.8295,3.8282,3.8262,3.8238,3.8225,3.8194,3.8176,3.8151,3.8159,3.8194,3.8088,3.8137,3.8086,3.8085,3.8059,3.806,3.7911,3.8051,3.8051,3.8051,3.8052,0,3.8334,3.8283,3.8304,3.827,3.8213,3.8234,3.8176,3.8174,3.8162,3.8127,3.8154,3.812,3.8134,3.81,3.8106,3.8047,3.8039,3.8038,3.8039,3.8034,3.8034,3.8019,3.8025,3.8047,3.8048,3.8049,3.805,0,3.8213,3.8226,3.8168,3.8165,3.8163,3.8121,3.8117,3.8084,3.8089,3.8043,3.8033,3.8038,3.7999,3.8006,3.7962,3.7966,3.7892,3.7903,3.7898,3.79,3.7848,3.7852,3.7682,3.766,3.7816,3.7814,3.7813,0,3.8137,3.8099,3.8093,3.8073,3.8066,3.8033,3.8014,3.8033,3.8011,3.7991,3.796,3.7925,3.7897,3.7833,3.783,3.7797,3.7806,3.7749,3.78,3.7796,3.7802,3.7803,3.7799,3.7737,3.7735,3.7734,3.7733,0,3.7999,3.8008,3.7982,3.7957,3.7935,3.7916,3.7899,3.788,3.7897,3.7871,3.7834,3.7813,3.777,3.7733,3.7703,3.7693,3.7714,3.7717,3.7703,3.7696,3.7694,3.7692,3.7868,3.772,3.7721,3.7722,3.7723,3.7723,3.7897,3.7865,3.7856,3.7826,3.7816,3.78,3.7769,3.7771,3.7741,3.771,3.7722,3.7679,3.7663,3.7625,3.7613,3.7577,3.7598,3.7578,3.7573,3.7567,3.756,3.7702,3.7572,3.7572,3.7572,3.7573,3.7573,0,3.7759,3.7757,3.7729,3.7706,3.7681,3.7709,3.7692,3.7668,3.7631,3.7617,3.759,3.7547,3.7512,3.7508,3.7475,3.7447,3.7455,3.7437,3.7438,3.7435,3.7544,3.7559,3.7431,3.7431,3.7431,3.7431,3.7431,3.7431,3.7685,3.7632,3.764,3.7582,3.7578,3.7539,3.7527,3.7511,3.75,3.7452,3.7424,3.7424,3.7412,3.7379,3.7347,3.7347,3.7332,3.7309,3.7312,3.7413,3.7427,3.7441,3.7455,3.7307,3.7306,3.7206,3.7205,3.7204]}]]